Tracking 19846 objects as of 20-Sep-2019
HD Live streaming from Space Station
objects crossing your sky now

MIRANDA (X-4)

Track MIRANDA (X-4) now!
10-day predictions
MIRANDA (X-4) is classified as:


NORAD ID: 7213
Int'l Code: 1974-013A
Perigee: 672.2 km
Apogee: 839.7 km
Inclination: 97.8 °
Period: 99.8 minutes
Semi major axis: 7126 km
RCS: 0.7069 m2 (medium)
Launch date: March 9, 1974
Source: United Kingdom (UK)
Launch site: AIR FORCE WESTERN TEST RANGE (AFWTR)
aabbcc
Your satellite tracking list
Your tracking list is empty




NASA's NSSDC Master Catalog

Two Line Element Set (TLE):
1  7213U 74013A   19262.05877815  .00000030  00000-0  20179-4 0  9995
2  7213  97.7821 267.6441 0117557 335.6439  23.9224 14.42936449384641
Source of the keplerian elements: AFSPC